Temperature
25 25 25 24 22 20 22 23 23 23 22 23 23 22 21 20 20 19 19 20 19 19 19 19 19 19 19 19 19 19 19 19 19 18 18 18 18 18 18 18 18 18 18 18 18 18 18 18 18
26 25 25 24 21 20 22 23 23 23 23 23 23 21 20 19 19 19 19 19 19 19 19 19 19 19 19 19 19 19 19 19 18 18 18 18 18 18 18 18 18 18 18 18 18 18 18 17 17
26 26 26 21 21 21 23 24 23 24 24 24 22 21 20 19 20 20 20 19 19 19 19 19 19 19 19 19 19 19 19 18 18 18 18 18 18 18 18 18 18 18 18 18 18 18 18 18 17
27 26 25 22 23 23 24 24 24 24 24 23 22 21 20 20 21 21 20 20 19 19 19 19 19 19 19 19 19 19 19 18 18 18 18 18 18 18 18 18 18 18 18 18 18 18 17 17 17
27 26 22 22 24 24 24 25 25 24 23 23 22 20 19 20 21 21 20 20 20 19 19 19 19 19 19 19 19 19 18 18 18 18 18 18 18 18 18 18 18 18 18 18 17 17 17 17 17
27 23 22 22 24 25 25 25 24 23 23 22 21 20 19 20 21 21 20 20 20 20 19 19 19 19 19 19 19 18 18 18 18 18 18 18 18 18 18 18 18 18 18 17 17 17 17 17 17
26 21 23 24 24 25 25 25 24 23 23 22 22 19 19 20 21 21 20 20 20 19 19 19 19 19 19 19 18 18 18 18 18 18 18 18 18 18 18 18 18 18 17 17 17 17 17 17 17
27 22 23 23 24 25 25 25 25 24 23 23 22 20 20 20 20 20 20 20 20 19 19 19 19 19 19 19 18 18 18 18 18 18 18 18 18 18 18 18 18 18 17 17 17 17 17 17 17
27 22 23 24 24 25 25 25 25 24 24 23 23 23 22 21 20 20 20 19 19 19 19 19 19 19 19 19 18 18 18 18 18 18 18 18 18 18 18 18 18 17 17 17 17 17 17 17 17
26 23 25 25 25 25 25 25 25 24 23 23 22 22 22 21 20 20 20 20 20 20 20 19 19 19 19 19 19 18 18 18 18 18 18 18 18 18 18 18 18 17 17 17 17 17 17 17 17
25 24 25 26 27 27 26 25 25 24 23 23 23 22 22 21 20 20 21 21 21 20 20 20 19 19 19 19 19 19 18 18 18 18 18 18 18 18 18 18 18 17 17 17 17 17 17 17 17
25 25 26 27 27 27 26 26 25 24 25 26 25 24 22 21 21 21 21 21 21 20 20 20 19 19 19 19 19 19 19 18 18 18 18 18 18 18 18 18 18 17 17 17 17 17 17 17 17
26 26 27 27 27 27 26 25 25 24 26 25 24 23 22 22 21 21 21 21 21 20 20 20 20 19 19 19 19 19 19 18 18 18 18 18 18 18 18 18 18 17 17 17 17 17 17 17 17
26 26 26 27 27 27 25 25 25 24 25 24 23 23 22 22 22 21 21 21 21 20 20 20 20 19 19 19 19 19 19 18 18 18 18 18 18 18 18 18 18 17 17 17 17 17 17 17 17
26 25 26 26 26 26 26 25 24 25 24 23 23 23 22 22 22 22 22 22 21 21 20 20 20 19 19 19 19 19 18 18 18 18 18 18 18 18 18 18 17 17 17 17 17 17 17 17 17
25 25 25 26 26 26 26 25 24 24 24 22 22 22 22 22 22 22 22 22 21 21 20 20 20 19 19 19 19 19 18 18 18 18 18 18 18 18 18 17 17 17 17 17 17 17 17 17 17
23 24 25 25 26 25 25 25 24 24 23 22 22 22 22 22 22 22 22 22 21 21 20 20 20 19 19 19 19 18 18 18 18 18 18 18 18 18 18 17 17 17 17 17 17 17 17 17 17
25 25 25 25 25 25 25 24 23 23 23 22 22 22 22 22 23 22 22 22 21 21 21 20 20 19 19 19 18 18 18 18 18 18 18 18 18 17 17 17 17 17 17 17 17 17 17 17 17
25 25 24 25 25 25 24 24 23 23 23 22 22 22 22 23 23 22 22 22 21 21 21 20 20 19 19 19 18 18 18 18 18 18 18 18 17 17 17 17 17 17 17 17 17 17 17 17 17
24 25 24 25 25 25 24 23 23 22 22 23 22 22 22 23 22 22 22 22 22 21 21 20 20 20 19 19 19 19 18 18 18 18 18 18 17 17 17 17 17 17 17 17 17 17 17 17 17
25 25 25 25 25 23 24 23 23 23 23 23 23 23 23 23 23 22 22 22 21 21 21 21 20 20 19 19 19 18 18 18 18 18 18 18 17 17 17 17 17 17 17 17 17 17 17 17 17
25 25 25 25 24 22 23 22 23 21 21 21 22 22 23 23 23 22 22 22 22 21 21 21 20 20 19 19 18 18 18 18 18 18 18 18 17 17 17 17 17 17 17 17 17 17 17 16 17
26 24 24 24 23 22 22 22 21 21 22 21 21 22 23 23 23 23 22 22 22 21 21 20 20 20 19 19 19 18 18 18 18 18 18 18 17 17 17 17 17 17 17 17 17 17 16 16 16
25 23 21 19 19 22 22 22 22 20 21 22 21 22 23 23 23 23 22 22 21 21 20 20 20 19 19 19 19 18 18 18 18 18 18 18 17 17 17 17 17 17 17 17 17 17 16 16 16
24 22 21 22 20 21 21 21 20 21 21 21 22 22 22 23 23 22 22 22 21 21 21 20 20 19 19 19 19 18 18 18 18 18 18 18 17 17 17 17 17 17 17 17 17 16 16 16 16
23 22 21 22 21 20 21 21 21 21 22 22 22 22 22 22 23 23 22 22 21 21 20 20 20 19 19 19 19 18 18 18 18 18 18 18 18 17 17 17 17 17 17 17 17 17 16 16 16
23 21 20 18 20 21 20 21 21 21 21 21 21 21 22 22 23 23 22 22 21 21 21 20 20 19 19 19 19 18 18 18 18 18 18 17 17 17 17 17 17 17 17 17 17 17 16 16 16
22 18 18 18 20 21 22 21 21 22 21 21 20 21 22 22 23 22 22 22 21 21 20 20 20 19 19 19 19 18 18 18 18 18 17 17 17 17 17 17 17 17 17 17 17 16 16 16 16
22 20 17 16 18 19 21 21 21 21 21 20 20 21 22 22 22 22 22 22 21 21 20 20 20 19 19 19 18 18 18 18 18 17 17 17 17 17 17 17 17 17 17 16 16 16 16 16 16
23 21 18 20 20 17 19 21 22 20 20 21 21 22 22 22 22 22 22 22 21 21 21 20 20 20 19 19 18 18 18 18 18 17 17 17 17 17 17 17 17 16 16 16 16 16 16 16 16
Wind_Speed
3 5 3 2 6 6 5 5 2 4 4 3 6 7 7 4 2 4 3 8 10 8 10 13 14 14 14 14 14 15 15 15 15 15 15 14 14 15 15 14 15 15 16 16 17 17 17 17 17
3 4 2 5 6 5 4 3 4 4 5 6 7 6 6 4 4 7 5 7 10 9 11 12 14 14 14 14 14 14 14 14 14 14 14 13 14 14 14 14 15 15 16 16 16 17 16 16 17
3 2 4 5 5 3 2 0 4 5 4 3 5 6 5 4 6 5 6 11 9 9 11 13 15 14 14 13 13 14 14 14 13 13 13 13 13 13 13 14 14 15 15 15 16 16 16 16 16
3 4 5 6 4 1 2 3 5 6 5 6 5 6 4 4 6 7 12 12 10 7 10 13 14 14 13 13 13 13 13 13 13 12 12 12 12 12 13 13 14 14 15 15 15 15 15 14 14
3 5 7 5 3 2 1 3 3 4 3 4 5 6 4 3 10 14 13 12 10 7 9 12 14 13 13 13 12 12 12 12 12 12 12 11 12 12 12 13 13 13 14 14 14 14 14 14 14
5 5 6 2 2 2 1 2 3 5 5 5 5 5 3 5 11 13 12 10 9 8 8 11 13 13 13 12 12 11 11 12 11 11 11 11 12 12 12 12 12 12 12 13 13 13 13 13 13
5 5 4 2 0 1 2 3 4 5 5 4 5 5 3 5 8 11 10 9 7 7 7 8 10 11 12 12 11 11 11 11 11 11 11 11 11 12 11 11 11 11 12 12 12 12 12 12 12
5 6 4 1 2 2 3 3 3 5 4 5 5 7 6 7 11 11 10 8 7 5 5 6 7 8 9 10 11 11 11 11 10 10 11 10 10 11 10 9 10 11 10 10 10 11 11 11 11
4 5 2 4 5 4 4 4 3 4 6 3 4 6 8 16 15 13 10 7 7 7 4 4 6 7 8 8 9 10 10 10 10 9 10 9 8 8 8 8 9 10 9 9 9 10 10 10 10
5 3 5 5 5 5 6 5 6 4 4 2 4 7 16 17 16 15 13 12 11 10 7 5 5 6 7 7 7 7 7 8 8 7 8 8 8 7 6 6 8 9 9 9 9 9 9 8 8
3 4 4 3 4 5 6 5 5 8 5 7 9 15 20 18 15 14 13 12 11 9 9 7 6 6 6 4 6 6 7 7 7 7 7 7 6 5 5 5 5 6 7 7 7 7 7 6 6
1 3 3 3 3 5 7 6 5 5 7 6 13 19 21 20 17 15 14 12 9 9 8 7 6 6 5 5 5 6 6 5 5 6 7 6 4 4 4 3 4 5 5 5 5 5 5 5 5
1 4 2 2 3 4 5 4 4 3 1 10 15 17 19 18 15 12 10 10 10 10 9 8 8 7 6 5 5 5 5 6 6 6 7 7 4 3 3 2 2 3 3 3 3 3 3 3 3
2 3 4 1 4 3 6 2 2 3 7 13 15 16 17 16 14 12 11 11 11 10 10 8 8 7 6 4 4 4 6 6 6 7 8 8 6 4 3 2 1 1 2 2 3 3 2 2 2
2 4 6 3 3 2 6 1 3 5 11 13 14 14 14 13 13 13 14 12 12 11 10 9 9 7 6 5 5 5 6 7 6 7 8 8 8 6 5 2 2 2 2 2 2 2 2 1 2
5 6 4 4 2 2 7 4 4 7 12 11 11 12 11 11 12 11 11 10 10 10 10 10 10 9 8 6 5 5 6 7 7 8 8 9 9 8 6 3 3 4 3 3 2 1 1 1 1
7 3 3 5 1 2 4 4 2 7 11 11 10 10 10 9 9 9 10 11 11 11 11 10 9 9 8 7 5 5 5 6 6 7 8 9 10 9 8 5 4 4 3 2 2 1 1 1 1
2 2 3 4 3 2 2 2 1 6 9 10 9 8 9 10 11 9 10 10 10 10 10 10 8 8 7 5 3 2 3 3 5 6 7 9 9 10 8 6 5 5 3 2 2 2 1 1 1
2 1 4 5 3 2 2 1 2 4 6 7 8 8 9 11 7 7 8 10 9 9 10 10 9 8 7 5 4 4 3 3 3 5 7 9 9 9 8 5 5 5 4 4 3 2 2 1 1
3 1 3 4 4 3 2 2 0 3 5 7 8 9 10 8 6 7 7 9 10 10 10 10 10 9 8 6 5 3 3 2 2 3 5 7 8 8 8 6 5 5 4 4 3 3 2 1 2
1 3 3 1 4 6 4 5 2 1 2 3 5 6 7 9 9 8 8 9 9 10 11 11 10 9 8 7 4 3 2 1 1 2 2 4 7 8 7 8 6 5 5 5 4 4 4 3 2
3 4 3 3 4 3 3 1 5 3 3 4 6 7 7 7 7 8 8 8 9 9 8 8 8 7 7 7 6 6 5 4 4 3 3 3 5 7 8 7 7 6 4 5 5 4 3 4 3
4 3 4 3 5 3 4 2 7 2 4 6 5 5 6 7 9 9 9 9 8 7 7 6 7 7 7 7 8 7 5 4 2 2 3 3 3 5 7 7 6 5 5 5 5 4 4 4 4
5 7 7 6 5 2 2 1 6 4 6 5 3 4 6 7 7 7 6 6 5 6 6 6 7 6 7 7 7 7 7 5 4 3 3 3 2 3 4 5 5 5 5 5 5 5 6 5 5
6 6 5 6 5 4 3 2 8 7 6 6 6 6 6 7 7 6 6 6 7 7 8 7 8 7 7 7 7 7 7 7 6 5 4 4 2 3 4 4 4 4 5 5 5 5 6 6 6
5 9 8 5 4 5 3 4 7 5 4 2 4 6 7 7 7 7 6 7 7 7 8 8 8 7 7 7 6 5 5 5 4 5 4 4 3 3 3 3 4 4 5 5 4 4 5 4 5
7 4 7 8 4 0 5 7 8 1 1 2 4 6 7 7 7 7 6 7 7 7 8 8 8 7 7 6 6 5 4 4 4 4 4 3 3 2 2 2 3 3 3 3 3 3 3 3 4
6 10 7 7 6 2 5 5 5 6 5 4 5 7 7 6 6 6 6 6 6 6 5 7 8 7 6 6 6 5 4 3 4 4 4 3 3 2 2 2 2 2 2 2 2 2 2 3 3
6 6 6 6 6 7 3 7 7 9 8 9 8 7 7 7 7 6 5 5 5 5 6 6 7 6 6 6 5 4 4 3 3 3 3 3 3 3 3 3 3 2 2 2 2 2 2 2 2
5 8 9 6 5 5 5 8 6 7 7 7 7 6 6 6 5 5 5 5 5 5 5 6 6 6 6 5 5 4 3 3 3 3 2 2 2 2 2 2 2 2 2 2 2 2 2 2 2
Wind_Direction
181 152 147 99 56 49 37 4 49 73 62 61 89 93 100 88 128 145 122 133 132 134 139 136 131 126 121 118 115 112 110 110 110 110 110 111 111 109 108 107 105 105 105 105 106 107 107 108 110
155 157 105 61 75 59 7 354 67 82 134 125 88 81 79 71 72 107 126 135 131 133 134 137 135 131 127 122 119 116 114 113 111 111 111 112 112 110 110 109 107 106 106 107 107 108 108 109 109
165 132 79 65 76 122 142 168 113 102 113 97 84 73 85 116 127 134 145 136 125 127 134 142 138 135 131 127 123 120 118 116 114 113 112 112 113 112 111 110 109 108 108 109 109 108 110 111 111
112 55 55 64 54 271 184 170 137 117 75 61 91 78 75 112 138 136 135 134 128 125 137 145 142 138 134 131 127 124 122 120 117 114 112 112 114 114 113 111 111 111 110 110 110 110 112 114 113
63 73 57 44 5 351 86 148 133 101 86 78 91 89 62 57 110 127 134 137 136 132 140 148 145 142 138 134 131 129 126 122 120 117 114 113 113 113 113 113 111 112 112 111 110 110 110 112 113
56 63 74 55 349 5 82 134 102 90 92 93 92 95 69 114 125 136 137 136 138 138 140 149 147 145 142 139 136 134 130 127 125 121 118 115 113 112 113 114 114 114 114 112 110 109 110 111 111
94 84 115 146 92 322 184 135 125 120 116 128 117 101 98 138 137 132 126 126 129 132 132 139 147 148 146 144 142 138 133 130 129 127 124 120 117 115 114 115 117 117 116 115 114 113 112 110 111
115 98 88 137 169 229 173 127 128 126 125 125 121 138 170 168 136 123 117 121 129 128 126 130 134 139 141 146 146 142 139 137 135 131 128 125 121 118 116 118 121 120 120 119 118 116 112 108 110
89 77 140 202 191 210 162 137 137 108 119 138 144 159 157 140 135 131 132 138 150 156 146 135 131 132 140 147 150 145 142 141 137 135 130 117 108 110 116 123 122 121 123 121 118 112 110 107 107
78 118 219 211 195 177 163 156 154 123 139 138 91 106 131 142 149 153 160 167 172 174 173 159 146 145 148 152 140 134 131 130 126 121 118 115 113 111 112 122 124 120 120 118 108 105 104 100 101
103 185 234 236 198 160 152 148 142 137 195 205 171 151 150 155 162 169 174 176 179 175 176 170 163 157 153 140 139 131 129 130 127 127 126 123 115 104 95 89 93 98 103 97 91 86 88 97 105
111 264 222 227 174 151 153 146 146 186 225 184 158 156 159 166 174 179 179 179 173 172 181 173 167 163 162 152 146 143 141 141 140 143 146 136 121 107 96 88 83 89 96 95 89 87 83 92 108
24 295 291 190 139 141 131 144 159 229 156 122 138 153 166 173 179 181 178 174 172 179 184 179 173 173 171 161 163 159 158 160 161 161 167 162 149 138 123 108 95 98 107 110 100 91 86 85 96
290 295 313 66 122 139 137 145 128 220 136 132 147 162 172 178 177 175 175 178 180 183 186 180 177 178 176 174 176 170 174 174 172 177 183 181 173 163 153 146 132 129 137 136 122 110 109 102 118
343 0 6 25 82 121 114 69 221 181 142 146 159 168 176 181 181 186 186 185 183 183 181 179 179 177 183 188 187 182 182 183 184 188 192 190 185 179 173 172 191 190 169 145 121 103 102 108 123
38 41 2 316 61 120 129 222 242 154 151 159 168 174 180 188 192 191 184 183 179 175 178 184 187 180 189 192 191 184 185 191 196 193 194 194 194 191 183 189 211 198 171 153 143 126 108 115 139
29 24 325 315 338 122 150 217 230 154 159 169 176 180 183 190 199 194 183 181 179 179 178 181 184 182 188 188 187 188 186 195 202 196 198 200 200 197 190 196 207 191 171 161 170 152 155 172 187
317 330 320 305 305 98 154 232 199 167 171 175 177 180 185 199 208 191 180 177 175 177 177 179 180 177 172 169 166 171 179 196 201 202 204 205 202 197 191 193 198 183 170 173 166 160 156 174 185
189 240 288 280 291 116 175 233 215 176 175 177 180 186 195 210 204 175 172 170 169 173 175 178 176 175 169 168 176 179 194 196 201 208 208 205 202 196 190 195 190 182 185 192 178 167 164 172 131
183 264 293 318 8 85 82 359 268 192 200 190 191 198 201 204 188 178 168 170 176 179 181 181 183 181 182 184 179 173 168 179 197 206 205 206 203 200 197 191 192 189 186 189 186 173 161 185 165
230 208 222 234 22 39 63 357 327 272 220 202 199 206 204 199 192 185 178 179 177 184 189 190 188 184 185 176 153 130 111 112 155 195 204 206 204 206 202 196 195 192 187 195 198 188 182 197 206
262 244 189 140 89 356 52 281 287 269 264 224 211 204 204 193 179 181 182 181 184 193 190 188 181 179 181 172 173 176 183 194 200 194 196 197 202 206 206 199 197 195 193 197 202 195 194 188 210
201 63 89 91 109 55 25 123 286 317 260 249 232 207 194 182 179 182 183 187 188 180 180 180 174 177 177 178 181 181 191 200 182 170 185 199 206 210 208 202 199 197 198 202 204 198 200 202 206
133 72 55 50 70 55 317 154 276 254 237 244 221 190 177 170 170 169 165 162 165 159 166 167 174 184 179 181 183 184 188 185 176 189 199 204 207 213 212 205 202 203 201 205 208 207 207 212 215
92 85 32 10 18 260 291 214 252 260 249 221 203 184 167 162 161 161 164 163 175 169 171 172 175 185 184 184 189 192 193 188 192 197 202 203 208 220 221 206 202 208 209 210 209 212 216 213 217
154 136 154 184 211 277 332 252 261 277 275 222 185 166 158 165 166 168 173 175 182 180 177 174 180 182 182 184 189 187 190 193 199 198 197 203 210 219 217 206 208 214 215 215 210 219 225 221 225
131 145 152 128 144 351 296 294 306 320 10 148 162 159 164 171 169 167 169 177 179 180 173 175 179 179 182 184 179 177 186 190 195 190 185 195 204 208 198 194 204 214 211 209 201 217 229 225 231
136 139 106 118 140 222 297 289 255 251 227 203 191 183 178 170 168 165 170 179 180 178 171 167 173 178 178 175 178 180 182 183 182 178 185 194 201 196 187 199 208 214 210 201 194 214 225 217 237
112 101 103 109 142 151 222 270 229 224 212 200 202 194 185 180 176 171 170 170 165 153 155 164 165 162 165 169 171 166 168 168 159 172 190 194 193 190 191 199 202 206 200 187 186 212 208 214 241
165 163 147 149 189 165 169 261 267 236 216 196 197 191 182 178 171 165 158 147 146 152 157 162 160 162 163 163 162 164 160 156 162 179 190 184 183 184 188 184 182 192 189 179 181 206 216 218 236
Height
1494 1494 1495 1497 1501 1515 1520 1513 1508 1509 1510 1511 1511 1513 1516 1520 1524 1529 1527 1527 1530 1532 1534 1536 1538 1539 1540 1541 1542 1543 1544 1545 1546 1546 1547 1548 1549 1550 1551 1551 1552 1553 1553 1554 1555 1556 1557 1558 1559
1495 1496 1498 1498 1513 1531 1525 1513 1511 1510 1511 1512 1513 1515 1517 1520 1521 1523 1525 1529 1532 1534 1536 1538 1540 1541 1543 1544 1544 1545 1546 1547 1548 1549 1549 1550 1551 1552 1553 1554 1554 1555 1556 1557 1557 1558 1560 1561 1562
1497 1497 1499 1504 1519 1528 1522 1513 1511 1511 1512 1513 1515 1517 1519 1522 1523 1525 1527 1530 1533 1536 1538 1540 1542 1543 1544 1546 1547 1548 1549 1549 1550 1551 1552 1553 1553 1554 1555 1556 1556 1557 1558 1559 1560 1561 1562 1563 1565
1498 1500 1502 1512 1520 1517 1514 1512 1511 1512 1513 1514 1516 1520 1522 1525 1526 1527 1529 1532 1535 1537 1540 1542 1543 1545 1546 1547 1549 1550 1551 1551 1552 1553 1554 1555 1556 1556 1557 1558 1559 1560 1561 1562 1563 1564 1565 1566 1567
1499 1501 1512 1523 1519 1514 1511 1512 1512 1513 1515 1517 1517 1521 1525 1527 1528 1529 1531 1534 1537 1539 1542 1543 1545 1547 1548 1549 1551 1552 1553 1553 1554 1555 1556 1557 1558 1559 1559 1560 1561 1562 1563 1564 1565 1567 1568 1569 1570
1501 1504 1524 1530 1521 1514 1512 1513 1514 1515 1516 1518 1520 1522 1526 1528 1529 1531 1534 1536 1539 1541 1543 1545 1547 1549 1550 1551 1552 1554 1555 1556 1556 1558 1558 1559 1560 1561 1562 1562 1563 1564 1566 1567 1568 1569 1570 1571 1572
1503 1512 1524 1524 1523 1517 1514 1514 1515 1516 1517 1520 1521 1523 1526 1529 1531 1533 1535 1538 1540 1543 1545 1547 1548 1550 1552 1553 1554 1555 1556 1557 1558 1560 1560 1561 1562 1563 1564 1565 1566 1567 1568 1569 1570 1571 1573 1574 1575
1503 1511 1521 1524 1522 1519 1514 1514 1515 1517 1519 1521 1522 1523 1526 1529 1532 1534 1537 1539 1542 1544 1546 1548 1550 1551 1553 1554 1556 1557 1558 1559 1560 1561 1562 1563 1564 1565 1566 1567 1568 1569 1570 1571 1573 1574 1575 1576 1577
1505 1517 1525 1521 1519 1515 1513 1514 1517 1518 1519 1521 1522 1523 1525 1528 1531 1534 1537 1540 1542 1545 1547 1549 1551 1552 1554 1556 1557 1559 1560 1561 1562 1563 1564 1565 1566 1567 1568 1569 1570 1571 1572 1573 1574 1576 1577 1578 1579
1506 1520 1517 1511 1510 1510 1512 1513 1516 1518 1519 1520 1521 1523 1525 1528 1531 1534 1536 1538 1541 1544 1547 1549 1551 1553 1555 1557 1558 1560 1561 1562 1564 1565 1566 1567 1568 1569 1570 1571 1572 1573 1573 1575 1576 1577 1579 1580 1581
1507 1512 1509 1507 1507 1508 1511 1514 1515 1517 1519 1517 1517 1520 1524 1527 1531 1533 1536 1539 1541 1545 1547 1549 1552 1554 1556 1558 1559 1561 1562 1563 1565 1566 1568 1569 1569 1570 1571 1572 1573 1574 1575 1576 1578 1579 1580 1582 1583
1508 1507 1506 1506 1506 1508 1510 1513 1516 1516 1514 1514 1515 1518 1522 1526 1529 1533 1536 1539 1542 1545 1548 1550 1552 1554 1557 1558 1560 1562 1563 1565 1566 1567 1569 1570 1571 1572 1573 1574 1575 1576 1577 1579 1580 1581 1582 1583 1584
1508 1506 1505 1505 1506 1508 1510 1513 1514 1515 1514 1514 1516 1519 1522 1525 1530 1534 1537 1540 1543 1545 1548 1551 1553 1555 1557 1559 1561 1562 1564 1565 1567 1568 1570 1571 1572 1574 1575 1576 1577 1578 1579 1580 1581 1583 1584 1584 1585
1508 1506 1505 1505 1506 1508 1510 1513 1515 1515 1515 1516 1517 1519 1523 1526 1530 1533 1537 1540 1543 1546 1548 1551 1553 1555 1557 1559 1561 1563 1565 1566 1568 1569 1571 1572 1573 1575 1576 1577 1578 1579 1580 1581 1582 1583 1584 1585 1586
1507 1508 1507 1506 1506 1508 1511 1517 1515 1514 1516 1517 1519 1522 1525 1528 1531 1533 1536 1539 1542 1546 1548 1551 1553 1555 1558 1560 1562 1563 1565 1566 1568 1569 1571 1572 1574 1575 1576 1577 1579 1580 1581 1582 1583 1584 1585 1585 1586
1509 1515 1520 1510 1508 1509 1515 1523 1514 1514 1516 1518 1521 1523 1526 1528 1530 1533 1537 1540 1543 1545 1548 1551 1553 1555 1557 1559 1561 1563 1564 1566 1568 1569 1571 1572 1574 1575 1576 1577 1578 1580 1580 1581 1582 1583 1584 1585 1586
1522 1529 1526 1517 1509 1510 1514 1519 1513 1514 1516 1519 1521 1524 1526 1529 1531 1533 1536 1539 1542 1545 1548 1550 1552 1555 1557 1559 1561 1563 1565 1566 1568 1569 1570 1572 1573 1575 1576 1577 1578 1579 1580 1581 1582 1583 1584 1585 1585
1529 1528 1526 1523 1512 1512 1515 1517 1514 1515 1516 1518 1521 1524 1526 1528 1529 1532 1535 1538 1541 1544 1547 1549 1552 1554 1556 1559 1560 1562 1564 1565 1567 1568 1569 1571 1572 1574 1575 1576 1577 1578 1579 1580 1581 1582 1583 1584 1584
1521 1525 1527 1520 1512 1514 1517 1518 1516 1515 1517 1519 1521 1523 1524 1525 1528 1532 1535 1537 1540 1542 1545 1547 1550 1552 1555 1557 1558 1560 1562 1564 1566 1567 1568 1570 1571 1572 1573 1575 1576 1577 1578 1579 1580 1581 1582 1583 1583
1520 1525 1525 1519 1513 1515 1519 1520 1517 1516 1517 1518 1519 1521 1523 1525 1527 1530 1533 1536 1538 1541 1543 1545 1548 1551 1553 1555 1557 1559 1561 1562 1564 1566 1567 1568 1570 1571 1572 1573 1574 1575 1576 1577 1579 1580 1581 1581 1582
1519 1522 1521 1521 1517 1518 1521 1527 1521 1517 1517 1518 1519 1520 1521 1523 1526 1528 1531 1534 1537 1539 1542 1544 1546 1549 1552 1554 1556 1558 1559 1560 1562 1564 1565 1566 1568 1569 1570 1571 1572 1573 1574 1575 1577 1578 1579 1579 1580
1522 1513 1515 1518 1527 1535 1529 1544 1527 1521 1518 1516 1516 1517 1519 1522 1524 1527 1530 1532 1535 1538 1541 1543 1546 1548 1550 1552 1554 1555 1557 1558 1559 1561 1563 1564 1566 1567 1568 1569 1570 1571 1572 1573 1574 1575 1576 1577 1578
1513 1511 1515 1520 1528 1538 1536 1544 1536 1523 1521 1516 1514 1515 1517 1519 1522 1525 1527 1530 1533 1536 1539 1542 1544 1546 1548 1550 1552 1554 1555 1557 1558 1559 1561 1562 1563 1565 1565 1567 1568 1569 1569 1570 1571 1572 1573 1574 1575
1508 1516 1523 1532 1539 1551 1541 1545 1541 1527 1519 1514 1512 1513 1515 1517 1519 1522 1526 1530 1532 1535 1537 1540 1542 1544 1546 1548 1550 1551 1553 1554 1556 1557 1559 1560 1561 1562 1563 1564 1565 1566 1567 1567 1568 1569 1570 1571 1571
1512 1530 1551 1552 1561 1556 1542 1543 1538 1517 1511 1510 1510 1512 1514 1516 1519 1522 1525 1527 1530 1532 1535 1537 1540 1542 1543 1546 1547 1549 1551 1553 1554 1555 1557 1558 1559 1560 1561 1562 1563 1563 1564 1564 1565 1566 1566 1567 1568
1514 1525 1551 1560 1563 1557 1544 1543 1526 1512 1509 1508 1509 1510 1513 1516 1518 1521 1524 1526 1528 1530 1532 1535 1537 1539 1542 1543 1545 1547 1549 1550 1552 1553 1555 1556 1557 1558 1559 1560 1560 1561 1561 1562 1562 1563 1563 1564 1564
1516 1524 1527 1548 1553 1557 1550 1537 1520 1510 1509 1508 1509 1510 1512 1514 1517 1520 1522 1525 1527 1528 1530 1533 1536 1537 1540 1541 1543 1545 1546 1547 1549 1551 1552 1554 1555 1556 1557 1557 1558 1558 1559 1559 1559 1559 1560 1560 1560
1507 1519 1535 1547 1561 1561 1550 1542 1532 1515 1511 1509 1510 1510 1511 1514 1516 1519 1521 1523 1525 1527 1528 1531 1533 1535 1537 1539 1541 1543 1544 1545 1547 1548 1550 1551 1552 1553 1554 1555 1555 1556 1556 1556 1556 1556 1556 1557 1557
1513 1521 1532 1545 1547 1560 1559 1544 1513 1509 1506 1506 1507 1508 1510 1513 1516 1518 1520 1522 1524 1526 1528 1530 1532 1533 1535 1537 1539 1541 1542 1544 1545 1546 1547 1549 1550 1551 1551 1552 1553 1553 1553 1553 1553 1553 1554 1553 1553
1502 1512 1524 1536 1544 1550 1552 1540 1502 1502 1502 1503 1505 1507 1510 1512 1515 1517 1520 1522 1523 1525 1527 1528 1530 1531 1533 1536 1538 1539 1541 1543 1544 1545 1546 1547 1547 1548 1549 1550 1550 1550 1550 1550 1551 1550 1551 1550 1550